| time (UTC) | temp C | wind direction | speed KPH | gust KPH | rain 1hr cm | rain 24hr cm | rain mn cm | humidity % | barometer mb |
| 20260503234529 | 10 | 11 | 1.6 | 6.4 | 0.00 | 0.00 | 0.00 | 38 | 1008.4 |
| 20260503234029 | 10 | 349 | 1.6 | 6.4 | 0.00 | 0.00 | 0.00 | 37 | 1008.4 |
| 20260503233549 | 10 | 349 | 1.6 | 6.4 | 0.00 | 0.00 | 0.00 | 37 | 1008.3 |
| 20260503233049 | 10 | 340 | 1.6 | 6.4 | 0.00 | 0.00 | 0.00 | 37 | 1008.2 |
| 20260503232531 | 10 | 336 | 3.2 | 11.3 | 0.00 | 0.00 | 0.00 | 38 | 1008.1 |
| 20260503232031 | 10 | 340 | 3.2 | 6.4 | 0.00 | 0.00 | 0.00 | 36 | 1008.1 |
| 20260503231531 | 10 | 324 | 1.6 | 6.4 | 0.00 | 0.00 | 0.00 | 38 | 1008.0 |
| 20260503231032 | 10 | 337 | 1.6 | 4.8 | 0.00 | 0.00 | 0.00 | 37 | 1007.9 |
| 20260503230550 | 10 | 339 | 3.2 | 11.3 | 0.00 | 0.00 | 0.00 | 36 | 1007.8 |
| 20260503230051 | 11 | 355 | 3.2 | 11.3 | 0.00 | 0.00 | 0.00 | 36 | 1007.7 |
| 20260503225530 | 11 | 1 | 3.2 | 11.3 | 0.00 | 0.00 | 0.00 | 36 | 1007.7 |
| 20260503225030 | 11 | 307 | 1.6 | 4.8 | 0.00 | 0.00 | 0.00 | 38 | 1007.6 |
| 20260503224530 | 11 | 8 | 3.2 | 9.7 | 0.00 | 0.00 | 0.00 | 36 | 1007.6 |
| 20260503224030 | 11 | 5 | 3.2 | 9.7 | 0.00 | 0.00 | 0.00 | 36 | 1007.6 |
| 20260503223529 | 11 | 341 | 3.2 | 9.7 | 0.00 | 0.00 | 0.00 | 35 | 1007.4 |
| 20260503223030 | 11 | 334 | 4.8 | 9.7 | 0.00 | 0.00 | 0.00 | 36 | 1007.3 |
| 20260503222531 | 11 | 334 | 3.2 | 9.7 | 0.00 | 0.00 | 0.00 | 36 | 1007.3 |
| 20260503222031 | 11 | 325 | 3.2 | 6.4 | 0.00 | 0.00 | 0.00 | 35 | 1007.2 |
| 20260503221531 | 11 | 352 | 4.8 | 16.1 | 0.00 | 0.00 | 0.00 | 35 | 1007.1 |
| 20260503221031 | 11 | 330 | 3.2 | 9.7 | 0.00 | 0.00 | 0.00 | 36 | 1007.1 |
| 20260503220531 | 11 | 351 | 3.2 | 9.7 | 0.00 | 0.00 | 0.00 | 35 | 1007.1 |
| 20260503220051 | 11 | 355 | 3.2 | 9.7 | 0.00 | 0.00 | 0.00 | 36 | 1007.1 |
| 20260503215530 | 11 | 355 | 3.2 | 9.7 | 0.00 | 0.00 | 0.00 | 37 | 1007.0 |
| 20260503215031 | 11 | 2 | 1.6 | 9.7 | 0.00 | 0.00 | 0.00 | 36 | 1006.9 |
| 20260503214551 | 11 | 3 | 3.2 | 14.5 | 0.00 | 0.00 | 0.00 | 36 | 1006.9 |
| 20260503214030 | 11 | 342 | 3.2 | 14.5 | 0.00 | 0.00 | 0.00 | 37 | 1006.8 |
| 20260503213529 | 11 | 334 | 3.2 | 11.3 | 0.00 | 0.00 | 0.00 | 36 | 1006.6 |
| 20260503213029 | 11 | 352 | 4.8 | 12.9 | 0.00 | 0.00 | 0.00 | 36 | 1006.7 |
| 20260503212530 | 11 | 355 | 4.8 | 11.3 | 0.00 | 0.00 | 0.00 | 37 | 1006.6 |
| 20260503212029 | 11 | 337 | 4.8 | 12.9 | 0.00 | 0.00 | 0.00 | 36 | 1006.5 |
| 20260503211529 | 11 | 338 | 3.2 | 9.7 | 0.00 | 0.00 | 0.00 | 38 | 1006.4 |
| 20260503211031 | 11 | 326 | 3.2 | 9.7 | 0.00 | 0.00 | 0.00 | 38 | 1006.4 |
| 20260503210531 | 11 | 348 | 3.2 | 9.7 | 0.00 | 0.00 | 0.00 | 37 | 1006.3 |
| 20260503210031 | 11 | 355 | 3.2 | 9.7 | 0.00 | 0.00 | 0.00 | 36 | 1006.1 |
| 20260503205530 | 11 | 345 | 4.8 | 11.3 | 0.00 | 0.00 | 0.00 | 36 | 1006.0 |
| 20260503205031 | 11 | 338 | 3.2 | 6.4 | 0.00 | 0.00 | 0.00 | 37 | 1006.0 |
| 20260503204530 | 11 | 7 | 1.6 | 14.5 | 0.00 | 0.00 | 0.00 | 37 | 1005.9 |
| 20260503204111 | 11 | 360 | 6.4 | 14.5 | 0.00 | 0.00 | 0.00 | 35 | 1005.9 |
| 20260503203530 | 11 | 353 | 6.4 | 17.7 | 0.00 | 0.00 | 0.00 | 34 | 1005.9 |
| 20260503203115 | 11 | 348 | 4.8 | 11.3 | 0.00 | 0.00 | 0.00 | 36 | 1005.8 |
| 20260503202530 | 11 | 357 | 3.2 | 12.9 | 0.00 | 0.00 | 0.00 | 38 | 1005.9 |
| 20260503202030 | 11 | 359 | 4.8 | 12.9 | 0.00 | 0.00 | 0.00 | 36 | 1005.7 |
| 20260503201529 | 11 | 349 | 3.2 | 6.4 | 0.00 | 0.00 | 0.00 | 37 | 1005.7 |
| 20260503201029 | 11 | 297 | 3.2 | 9.7 | 0.00 | 0.00 | 0.00 | 39 | 1005.8 |
| 20260503200529 | 11 | 6 | 3.2 | 6.4 | 0.00 | 0.00 | 0.00 | 40 | 1005.7 |
| 20260503200029 | 11 | 348 | 1.6 | 9.7 | 0.00 | 0.00 | 0.00 | 40 | 1005.8 |
| 20260503195529 | 11 | 349 | 3.2 | 11.3 | 0.00 | 0.00 | 0.00 | 40 | 1005.8 |
| 20260503195031 | 11 | 359 | 3.2 | 6.4 | 0.00 | 0.00 | 0.00 | 42 | 1005.8 |
| 20260503194531 | 11 | 360 | 3.2 | 11.3 | 0.00 | 0.00 | 0.00 | 40 | 1005.9 |
| 20260503194030 | 11 | 355 | 3.2 | 6.4 | 0.00 | 0.00 | 0.00 | 42 | 1005.9 |
| 20260503193530 | 11 | 337 | 3.2 | 6.4 | 0.00 | 0.00 | 0.00 | 43 | 1005.9 |
| 20260503193030 | 11 | 338 | 3.2 | 9.7 | 0.00 | 0.00 | 0.00 | 42 | 1005.8 |
| 20260503192551 | 11 | 350 | 6.4 | 14.5 | 0.00 | 0.00 | 0.00 | 42 | 1005.9 |
| 20260503192030 | 11 | 318 | 3.2 | 9.7 | 0.00 | 0.00 | 0.00 | 42 | 1005.9 |
| 20260503191530 | 12 | 353 | 4.8 | 12.9 | 0.00 | 0.00 | 0.00 | 42 | 1005.9 |
| 20260503191030 | 12 | 4 | 4.8 | 11.3 | 0.00 | 0.00 | 0.00 | 42 | 1005.9 |
| 20260503190530 | 12 | 356 | 3.2 | 9.7 | 0.00 | 0.00 | 0.00 | 43 | 1005.8 |
| 20260503190050 | 11 | 350 | 3.2 | 9.7 | 0.00 | 0.00 | 0.00 | 44 | 1005.9 |
| 20260503185530 | 11 | 337 | 4.8 | 14.5 | 0.00 | 0.00 | 0.00 | 43 | 1005.9 |
| 20260503185030 | 11 | 355 | 4.8 | 14.5 | 0.00 | 0.00 | 0.00 | 43 | 1006.0 |
| 20260503184529 | 11 | 330 | 6.4 | 12.9 | 0.00 | 0.00 | 0.00 | 44 | 1005.9 |
| 20260503184029 | 11 | 5 | 6.4 | 14.5 | 0.00 | 0.00 | 0.00 | 43 | 1005.9 |
| 20260503183529 | 11 | 354 | 3.2 | 9.7 | 0.00 | 0.00 | 0.00 | 45 | 1005.9 |
| 20260503183049 | 11 | 350 | 3.2 | 9.7 | 0.00 | 0.00 | 0.00 | 47 | 1006.0 |
| 20260503182529 | 11 | 356 | 4.8 | 11.3 | 0.00 | 0.00 | 0.00 | 46 | 1006.0 |
| 20260503182031 | 11 | 3 | 4.8 | 12.9 | 0.00 | 0.00 | 0.00 | 47 | 1006.2 |
| 20260503181532 | 11 | 340 | 3.2 | 11.3 | 0.00 | 0.00 | 0.00 | 49 | 1006.1 |
| 20260503181031 | 10 | 1 | 4.8 | 12.9 | 0.00 | 0.00 | 0.00 | 50 | 1006.1 |
| 20260503180530 | 10 | 346 | 3.2 | 9.7 | 0.00 | 0.00 | 0.00 | 49 | 1006.1 |
| 20260503180030 | 10 | 356 | 3.2 | 11.3 | 0.00 | 0.00 | 0.00 | 50 | 1006.1 |
| 20260503175610 | 10 | 2 | 6.4 | 14.5 | 0.00 | 0.00 | 0.00 | 49 | 1006.1 |
| 20260503175030 | 11 | 335 | 6.4 | 16.1 | 0.00 | 0.00 | 0.00 | 49 | 1006.0 |
| 20260503174530 | 11 | 357 | 6.4 | 17.7 | 0.00 | 0.00 | 0.00 | 48 | 1006.0 |
| 20260503174030 | 11 | 0 | 3.2 | 11.3 | 0.00 | 0.00 | 0.00 | 48 | 1006.0 |
| 20260503173529 | 11 | 353 | 6.4 | 14.5 | 0.00 | 0.00 | 0.00 | 48 | 1006.0 |
| 20260503173034 | 11 | 353 | 6.4 | 14.5 | 0.00 | 0.00 | 0.00 | 47 | 1006.1 |
| 20260503172529 | 11 | 357 | 6.4 | 12.9 | 0.00 | 0.00 | 0.00 | 47 | 1006.0 |
| 20260503172029 | 11 | 330 | 4.8 | 12.9 | 0.00 | 0.00 | 0.00 | 48 | 1005.9 |
| 20260503171529 | 10 | 359 | 6.4 | 14.5 | 0.00 | 0.00 | 0.00 | 47 | 1006.0 |
| 20260503171029 | 10 | 18 | 9.7 | 22.5 | 0.00 | 0.00 | 0.00 | 46 | 1006.0 |
| 20260503170531 | 10 | 4 | 4.8 | 16.1 | 0.00 | 0.00 | 0.00 | 47 | 1006.0 |
| 20260503150549 | 8 | 359 | 4.8 | 14.5 | 0.00 | 0.00 | 0.00 | 71 | 1006.1 |
| 20260503150109 | 8 | 329 | 4.8 | 11.3 | 0.00 | 0.00 | 0.00 | 73 | 1006.0 |
| 20260503140110 | 6 | 343 | 3.2 | 14.5 | 0.00 | 0.00 | 0.00 | 81 | 1006.3 |
| 20260503131050 | 6 | 345 | 3.2 | 9.7 | 0.00 | 0.08 | 0.00 | 82 | 1006.6 |
| 20260503130530 | 6 | 2 | 3.2 | 9.7 | 0.00 | 0.10 | 0.00 | 81 | 1006.6 |
| 20260503110531 | 5 | 337 | 1.6 | 4.8 | 0.00 | 0.15 | 0.00 | 80 | 1007.0 |
| 20260503100109 | 6 | 310 | 0.0 | 3.2 | 0.00 | 0.15 | 0.00 | 81 | 1007.1 |
| 20260503081030 | 7 | 9 | 1.6 | 3.2 | 0.00 | 0.15 | 0.00 | 80 | 1008.0 |
| 20260503080529 | 7 | 4 | 1.6 | 3.2 | 0.00 | 0.15 | 0.00 | 81 | 1008.3 |
| 20260503072530 | 7 | 356 | 0.0 | 3.2 | 0.00 | 0.15 | 0.00 | 84 | 1008.3 |
| 20260503072030 | 7 | 356 | 0.0 | 3.2 | 0.00 | 0.15 | 0.00 | 84 | 1008.3 |
| 20260503071530 | 7 | 0.0 | 0.0 | 0.00 | 0.15 | 0.00 | 84 | 1008.5 | |
| 20260503071030 | 7 | 0.0 | 0.0 | 0.00 | 0.15 | 0.00 | 84 | 1008.5 | |
| 20260503070550 | 7 | 0.0 | 0.0 | 0.00 | 0.15 | 0.00 | 83 | 1008.4 | |
| 20260503055030 | 7 | 0.0 | 0.0 | 0.00 | 0.15 | 0.00 | 83 | 1009.5 | |
| 20260503054530 | 7 | 0.0 | 0.0 | 0.00 | 0.15 | 0.00 | 83 | 1009.4 | |
| 20260503054030 | 8 | 352 | 0.0 | 3.2 | 0.00 | 0.15 | 0.00 | 82 | 1009.3 |
| 20260503053529 | 8 | 0.0 | 0.0 | 0.00 | 0.15 | 0.00 | 82 | 1009.3 | |
| 20260503053029 | 8 | 0.0 | 1.6 | 0.00 | 0.15 | 0.00 | 81 | 1009.4 | |
| 20260503052529 | 8 | 352 | 0.0 | 4.8 | 0.00 | 0.15 | 0.00 | 81 | 1009.3 |
| 20260503052029 | 8 | 349 | 1.6 | 4.8 | 0.00 | 0.15 | 0.00 | 80 | 1009.4 |
| 20260503051529 | 8 | 347 | 1.6 | 3.2 | 0.00 | 0.15 | 0.00 | 80 | 1009.5 |
| 20260503051029 | 8 | 335 | 1.6 | 3.2 | 0.00 | 0.15 | 0.00 | 80 | 1009.7 |
| 20260503050528 | 8 | 357 | 1.6 | 4.8 | 0.00 | 0.15 | 0.00 | 80 | 1009.7 |
| 20260503050031 | 8 | 351 | 0.0 | 3.2 | 0.00 | 0.15 | 0.00 | 79 | 1009.8 |
| 20260503045530 | 8 | 358 | 1.6 | 4.8 | 0.00 | 0.15 | 0.00 | 79 | 1009.8 |
| 20260503045030 | 8 | 3 | 1.6 | 3.2 | 0.00 | 0.15 | 0.00 | 79 | 1009.7 |
| 20260503044530 | 8 | 10 | 0.0 | 3.2 | 0.00 | 0.15 | 0.00 | 79 | 1009.9 |
| 20260503044030 | 8 | 10 | 0.0 | 3.2 | 0.00 | 0.15 | 0.00 | 79 | 1009.8 |
| 20260503043550 | 8 | 10 | 1.6 | 3.2 | 0.00 | 0.15 | 0.00 | 80 | 1010.0 |
| 20260503043050 | 8 | 12 | 0.0 | 1.6 | 0.00 | 0.15 | 0.00 | 81 | 1010.2 |
| 20260503042529 | 8 | 12 | 0.0 | 3.2 | 0.00 | 0.15 | 0.00 | 81 | 1010.2 |
| 20260503042029 | 8 | 356 | 3.2 | 4.8 | 0.00 | 0.15 | 0.00 | 81 | 1010.2 |
| 20260503041611 | 8 | 332 | 1.6 | 4.8 | 0.00 | 0.15 | 0.00 | 82 | 1010.3 |
| 20260503041029 | 8 | 199 | 0.0 | 1.6 | 0.00 | 0.15 | 0.00 | 84 | 1010.4 |
| 20260503040549 | 8 | 199 | 0.0 | 1.6 | 0.00 | 0.15 | 0.00 | 85 | 1010.3 |
| 20260503040031 | 8 | 199 | 0.0 | 1.6 | 0.00 | 0.15 | 0.00 | 86 | 1010.2 |
| 20260503035530 | 8 | 199 | 0.0 | 1.6 | 0.00 | 0.15 | 0.15 | 87 | 1010.2 |
| 20260503035031 | 8 | 199 | 0.0 | 1.6 | 0.00 | 0.15 | 0.15 | 87 | 1010.2 |
| 20260503034530 | 8 | 198 | 0.0 | 1.6 | 0.00 | 0.15 | 0.15 | 88 | 1010.3 |
| 20260503034111 | 9 | 0.0 | 0.0 | 0.00 | 0.15 | 0.15 | 88 | 1010.3 | |
| 20260503033530 | 8 | 0.0 | 0.0 | 0.00 | 0.15 | 0.15 | 89 | 1010.3 | |
| 20260503033030 | 8 | 0.0 | 0.0 | 0.00 | 0.15 | 0.15 | 89 | 1010.4 | |
| 20260503032610 | 9 | 0.0 | 0.0 | 0.00 | 0.15 | 0.15 | 89 | 1010.2 | |
| 20260503032050 | 9 | 199 | 0.0 | 1.6 | 0.00 | 0.15 | 0.15 | 89 | 1010.4 |
| 20260503031529 | 9 | 0.0 | 0.0 | 0.00 | 0.15 | 0.15 | 89 | 1010.4 | |
| 20260503031029 | 9 | 0.0 | 0.0 | 0.00 | 0.15 | 0.15 | 89 | 1010.4 | |
| 20260503030529 | 9 | 0.0 | 0.0 | 0.00 | 0.15 | 0.15 | 88 | 1010.4 | |
| 20260503030029 | 9 | 0.0 | 0.0 | 0.00 | 0.15 | 0.15 | 88 | 1010.4 | |
| 20260503025531 | 9 | 0.0 | 0.0 | 0.00 | 0.15 | 0.15 | 88 | 1010.3 | |
| 20260503025031 | 9 | 0.0 | 0.0 | 0.00 | 0.15 | 0.15 | 88 | 1010.2 | |
| 20260503024531 | 9 | 0.0 | 0.0 | 0.00 | 0.15 | 0.15 | 88 | 1010.3 | |
| 20260503024030 | 9 | 0.0 | 0.0 | 0.00 | 0.15 | 0.15 | 88 | 1010.4 | |
| 20260503023530 | 9 | 0.0 | 0.0 | 0.00 | 0.15 | 0.15 | 87 | 1010.3 | |
| 20260503023030 | 9 | 0.0 | 0.0 | 0.00 | 0.15 | 0.15 | 87 | 1010.3 | |
| 20260503022550 | 9 | 0.0 | 0.0 | 0.00 | 0.15 | 0.15 | 87 | 1010.3 | |
| 20260503022030 | 9 | 0.0 | 0.0 | 0.00 | 0.15 | 0.15 | 87 | 1010.4 | |
| 20260503021530 | 9 | 0.0 | 0.0 | 0.00 | 0.15 | 0.15 | 87 | 1010.4 | |
| 20260503021030 | 9 | 0.0 | 0.0 | 0.00 | 0.15 | 0.15 | 87 | 1010.6 | |
| 20260503020529 | 9 | 0.0 | 0.0 | 0.00 | 0.15 | 0.15 | 87 | 1010.7 | |
| 20260503020030 | 9 | 0.0 | 0.0 | 0.00 | 0.15 | 0.15 | 87 | 1010.8 | |
| 20260503015529 | 9 | 0.0 | 0.0 | 0.00 | 0.15 | 0.15 | 86 | 1010.8 | |
| 20260503015049 | 9 | 0.0 | 0.0 | 0.00 | 0.15 | 0.15 | 86 | 1010.8 | |
| 20260503014529 | 10 | 0.0 | 0.0 | 0.00 | 0.15 | 0.15 | 85 | 1010.9 | |
| 20260503014031 | 10 | 0.0 | 0.0 | 0.00 | 0.15 | 0.15 | 85 | 1010.9 | |
| 20260503013530 | 10 | 0.0 | 0.0 | 0.00 | 0.15 | 0.15 | 84 | 1010.9 | |
| 20260503013031 | 10 | 0.0 | 0.0 | 0.00 | 0.15 | 0.15 | 83 | 1010.9 | |
| 20260503012530 | 10 | 0.0 | 0.0 | 0.00 | 0.15 | 0.15 | 83 | 1010.8 | |
| 20260503012030 | 10 | 0.0 | 0.0 | 0.00 | 0.15 | 0.15 | 82 | 1010.9 | |
| 20260503011530 | 10 | 0.0 | 0.0 | 0.00 | 0.15 | 0.15 | 81 | 1010.8 | |
| 20260503011030 | 10 | 199 | 0.0 | 1.6 | 0.00 | 0.15 | 0.15 | 81 | 1010.7 |
| 20260503010530 | 10 | 199 | 0.0 | 1.6 | 0.00 | 0.15 | 0.15 | 81 | 1010.7 |
| 20260503010030 | 10 | 199 | 0.0 | 1.6 | 0.00 | 0.15 | 0.15 | 81 | 1010.7 |
| 20260503005529 | 10 | 199 | 0.0 | 1.6 | 0.00 | 0.15 | 0.15 | 82 | 1010.6 |
| 20260503005030 | 10 | 199 | 0.0 | 1.6 | 0.00 | 0.15 | 0.15 | 82 | 1010.5 |
| 20260503004650 | 10 | 199 | 0.0 | 1.6 | 0.00 | 0.15 | 0.15 | 83 | 1010.6 |
| 20260503004029 | 10 | 198 | 0.0 | 1.6 | 0.00 | 0.15 | 0.15 | 84 | 1010.5 |
| 20260503003529 | 10 | 0.0 | 0.0 | 0.00 | 0.15 | 0.15 | 84 | 1010.6 | |
| 20260503003029 | 10 | 0.0 | 0.0 | 0.00 | 0.15 | 0.15 | 83 | 1010.5 | |
| 20260503002531 | 10 | 0.0 | 0.0 | 0.00 | 0.15 | 0.15 | 82 | 1010.4 | |
| 20260503002030 | 10 | 0.0 | 0.0 | 0.00 | 0.15 | 0.15 | 82 | 1010.4 | |
| 20260503001551 | 10 | 0.0 | 0.0 | 0.00 | 0.15 | 0.15 | 81 | 1010.3 | |
| 20260503001031 | 10 | 0.0 | 0.0 | 0.00 | 0.15 | 0.15 | 80 | 1010.2 | |
| 20260503000530 | 10 | 0.0 | 1.6 | 0.00 | 0.15 | 0.15 | 80 | 1010.3 | |
| 20260503000030 | 10 | 198 | 0.0 | 1.6 | 0.00 | 0.15 | 0.15 | 79 | 1010.2 |
| 20260502235530 | 10 | 198 | 0.0 | 1.6 | 0.00 | 0.15 | 0.15 | 79 | 1010.1 |
| 20260502235030 | 10 | 0.0 | 0.0 | 0.00 | 0.15 | 0.15 | 78 | 1010.1 |